Location: Newark
(0.5300°S, 127.4800°E)
Time: 01:45:16
(UTC+00:00)

Vanguard 3 - Pass Details

Date: 19 September 2019
Orbit: 508 x 3262 km, 33.3° (Epoch: 13 October)

Event Time Altitude Azimuth Distance (km) Brightness Sun altitude
Rises 06:31:19 0° 315° (NW) 6,932 12.4 43.1°
Reaches altitude 10° 06:36:51 10° 321° (NW) 5,615 12.0 41.8°
Maximum altitude 06:51:20 43° 27° (NNE) 2,589 9.9 38.1°
Drops below altitude 10° 06:59:59 10° 96° (E) 3,438 10.0 36.0°
Sets 07:02:30 0° 103° (ESE) 4,109 10.3 35.4°
